Location: Newark
(40.7830°N, 8.7430°E)
Time: 22:47:49
(UTC+00:00)

ISS - Pass Details

Date: 23 September 2019
Orbit: 411 x 421 km, 51.6° (Epoch: 21 October)

Event Time Altitude Azimuth Distance (km) Brightness Sun altitude
Rises 18:28:59 0° 258° (WSW) 2,337 1.3 -13.6°
Reaches altitude 10° 18:31:13 10° 269° (W) 1,477 0.3 -14.0°
Maximum altitude 18:34:12 30° 334° (NNW) 759 -2.1 -14.5°
Enters shadow 18:37:10 10° 38° (NE) 1,468 -1.2 -15.1°
